Regional Weather Roundup
Issued by NWS Sioux Falls, SD

Home | Current Version | Previous Version | Text Only | Print | Product List | Glossary Off
Versions: 1 2 3 4 5 6 7 8 9 10 11 12 13 14 15 16 17 18 19 20 21 22 23 24 25 26 27 28 29 30 31 32 33 34 35 36 37 38 39 40 41 42 43 44 45 46 47 48 49 50

000
ASUS43 KFSD 240310
RWRFSD

WEATHER ROUNDUP FOR SE SOUTH DAKOTA/SW MINNESOTA/NW IOWA
NATIONAL WEATHER SERVICE SIOUX FALLS SD
1000 PM CDT THU MAR 23 2017

NOTE: "FAIR" INDICATES FEW OR NO CLOUDS BELOW 12,000 FEET WITH NO
SIGNIFICANT WEATHER AND OR OBSTRUCTIONS TO VISIBILITY.


SDZ038>040-050-052>070-240400-
SOUTHEAST SOUTH DAKOTA

CITY           SKY/WX    TMP DP  RH WIND       PRES   REMARKS
BROOKINGS      CLOUDY    41  40  96 CALM      29.74R FOG
CHAMBERLAIN    FOG       46  46 100 N6        29.75R VSB 1/2
HURON          CLOUDY    41  41 100 N9        29.75R FOG
MADISON        MOCLDY    39  39 100 NE3       29.74R FOG
MITCHELL       CLOUDY    46  46 100 N8        29.74R FOG
SIOUX FALLS    CLOUDY    46  41  82 N6        29.73R
WINNER         FOG       50  48  93 NE10      29.72R VSB 3/4
YANKTON        CLOUDY    54  46  76 N9        29.69R
$$

MNZ071-072-080-081-089-090-097-098-240400-
SOUTHWEST MINNESOTA

CITY           SKY/WX    TMP DP  RH WIND       PRES   REMARKS
FAIRMONT       CLOUDY    39  36  89 SE12      29.76F
JACKSON        CLOUDY    37  34  87 SE12      29.74S
LUVERNE        CLOUDY    43  36  75 N7        29.73R
MARSHALL       MIX PCPN  37  36  96 E8        29.78R
MONTEVIDEO     DRIZZLE   36  36 100 CALM      29.83R
PIPESTONE      CLOUDY    39  36  87 E5        29.74R
REDWOOD FALLS  LGT RAIN  38  35  89 E6        29.79R FOG
TRACY          RAIN      38  37  94 NE5       29.77R
WINDOM         MOCLDY    41  36  81 E6        29.75R
WORTHINGTON    CLOUDY    40  36  86 E7        29.74R
$$

IAZ001>003-012>014-020>022-031-032-NEZ013-014-SDZ071-240400-
NORTHWEST IOWA

CITY           SKY/WX    TMP DP  RH WIND       PRES   REMARKS
CHEROKEE       CLOUDY    48  38  69 SE6       29.72R
ESTHERVILLE    CLOUDY    39  38  96 SE10      29.74S
LE MARS        CLOUDY    54  41  62 SE10G21   29.66F
ORANGE CITY    CLOUDY    48  43  81 E7        29.68S
SHELDON        CLOUDY    46  46 100 SE14      29.68S
SIOUX CITY     CLOUDY    55  44  66 E10       29.64F
SPENCER        CLOUDY    45  38  76 SE14      29.73S
STORM LAKE     CLOUDY    46  37  71 SE15      29.71R
$$

ABBREVIATIONS USED IN REMARKS
   TC - TEMPERATURE IN CELSIUS
  WCI - WIND CHILL INDEX
   HX - HEAT INDEX
  VSB - VISIBILITY




USA.gov is the U.S. government's official web portal to all federal, state and local government web resources and services.